Wetbulb
47.49 50.52 55.22 59.64 63.26 65.18 65.94 65.61 63.91 64.33 64.06 64.55 64.55 63.88 64.44 65.13 65.59 65.19 64.44 64.51 64.76 63.78
46.86 51.03 58.87 63.36 65.65 66.10 66.91 65.76 64.33 64.30 63.95 64.24 64.71 64.31 64.55 63.25 63.76 64.65 65.42 65.95 64.01 62.94
45.87 49.62 60.75 64.71 65.16 65.67 66.48 66.24 65.72 64.80 63.76 62.75 62.58 64.30 64.04 62.00 63.54 63.87 65.49 65.41 64.47 63.79
44.27 47.41 52.19 62.86 64.28 65.24 66.20 65.73 64.78 64.35 62.81 62.38 62.48 60.80 61.05 62.39 61.63 62.42 63.36 62.97 62.33 61.24
41.50 43.69 46.47 50.26 57.60 64.18 64.50 64.65 64.61 62.84 63.29 62.94 62.05 62.62 58.66 57.81 60.09 61.13 61.86 62.05 61.15 60.07
38.75 41.22 42.05 43.79 47.54 60.09 62.70 62.34 61.76 62.56 62.53 62.78 62.48 62.31 61.26 58.79 58.14 61.24 62.30 61.98 60.63 59.59
36.31 38.63 40.53 40.87 43.07 43.51 49.80 60.53 60.82 61.55 62.05 61.46 61.66 62.19 62.44 61.10 60.32 60.90 61.39 61.54 61.25 60.69
34.47 36.62 38.48 39.13 38.77 39.83 39.44 41.23 50.64 56.96 54.52 56.58 54.92 55.19 59.98 60.36 59.44 59.46 59.30 56.53 54.68 49.10
33.81 33.63 34.52 35.91 37.11 36.39 36.87 35.81 37.43 40.35 43.60 42.56 41.30 38.67 41.18 53.73 55.45 53.59 52.37 47.65 46.09 44.58
32.09 32.11 31.97 33.57 33.93 34.32 34.78 34.72 33.24 34.10 35.99 36.46 37.60 38.04 40.49 41.13 44.44 41.28 41.22 41.47 41.60 42.08
31.85 31.50 31.75 31.34 31.15 31.68 32.29 32.29 31.79 31.59 32.79 34.16 34.87 35.79 36.71 36.72 37.94 36.51 35.54 35.74 36.59 37.61
32.52 32.04 31.88 31.20 30.38 30.16 28.88 28.90 29.04 30.13 30.49 31.80 32.27 34.16 35.05 34.99 33.71 32.44 32.00 32.69 33.59 34.33
32.77 32.52 31.97 32.15 31.97 31.94 30.91 28.52 27.80 27.67 28.58 30.25 30.24 32.59 33.20 32.97 32.11 30.30 30.22 30.81 31.19 32.04
32.53 32.67 32.82 33.24 32.70 32.34 31.97 31.76 29.77 27.91 27.17 27.54 28.59 29.61 31.45 31.62 29.85 29.03 28.37 28.10 28.37 29.80
MSLP
1004.58 1003.15 1001.81 1000.34 998.91 998.34 998.62 999.52 1000.66 1001.52 1002.00 1002.56 1003.13 1003.40 1003.92 1003.75 1005.04 1005.57 1006.13 1005.96 1006.41 1007.02
1003.48 1001.99 1000.14 998.73 997.99 997.88 998.05 998.81 999.77 1000.73 1001.36 1001.68 1002.14 1002.66 1003.17 1003.84 1004.89 1005.31 1005.49 1005.27 1006.10 1006.33
1002.99 1001.20 998.74 997.50 997.24 997.23 997.42 998.15 998.76 999.73 1000.48 1001.03 1001.69 1001.97 1002.56 1003.72 1004.42 1004.71 1004.60 1004.78 1005.13 1005.62
1003.05 1001.54 1000.03 997.95 997.31 996.75 996.92 997.26 997.94 998.59 999.68 1000.31 1000.90 1001.53 1002.24 1002.46 1003.48 1004.13 1004.28 1004.89 1004.82 1005.39
1004.14 1002.85 1001.26 999.63 998.46 996.92 996.82 996.78 997.49 998.05 998.78 999.59 1000.60 1001.20 1001.91 1002.19 1003.27 1004.23 1004.05 1004.48 1004.87 1005.17
1005.31 1004.23 1002.82 1001.47 1000.24 998.17 997.63 997.76 997.96 997.97 998.59 999.17 999.84 1000.09 1000.54 1000.22 1003.49 1003.62 1003.77 1003.99 1004.52 1005.04
1006.83 1005.80 1004.20 1003.14 1002.31 1000.88 999.54 998.41 998.44 998.36 998.68 999.28 999.87 1000.45 1000.70 1001.31 1002.44 1003.02 1003.40 1003.91 1004.28 1004.67
1008.12 1006.97 1005.58 1003.72 1002.83 1002.35 1001.84 1000.39 999.58 999.00 999.36 999.66 1000.26 1000.61 1000.10 1000.47 1001.84 1002.72 1003.32 1003.94 1004.51 1005.20
1009.08 1007.67 1006.19 1005.66 1004.78 1003.07 1004.00 1002.28 1002.44 1001.81 1001.78 1001.86 1002.24 1001.85 1000.87 1000.58 1001.98 1002.81 1003.49 1004.44 1005.04 1005.76
1010.11 1008.95 1007.89 1007.22 1006.19 1004.73 1005.32 1004.30 1004.02 1004.42 1003.91 1003.73 1003.31 1002.68 1001.86 1002.10 1003.11 1004.04 1004.85 1005.53 1006.03 1006.44
1011.42 1010.50 1009.60 1008.92 1008.39 1007.93 1007.06 1006.73 1006.46 1006.03 1006.08 1005.84 1005.03 1004.59 1003.53 1003.51 1004.60 1005.48 1006.34 1006.84 1007.20 1007.64
1012.46 1011.72 1010.87 1010.21 1009.83 1009.32 1008.84 1008.57 1008.35 1007.99 1007.53 1008.36 1006.18 1006.45 1005.89 1004.78 1005.71 1006.71 1007.47 1008.07 1008.49 1008.57
1013.48 1012.73 1012.16 1011.69 1011.10 1010.77 1010.60 1010.75 1010.35 1009.72 1009.43 1009.25 1007.24 1007.84 1008.09 1006.16 1006.81 1007.56 1008.50 1009.04 1009.56 1009.67
1014.47 1013.88 1013.37 1012.87 1012.38 1012.02 1011.86 1011.46 1011.07 1010.92 1010.74 1010.54 1009.45 1009.38 1009.03 1008.66 1008.47 1009.48 1009.80 1010.26 1010.59 1010.99
Wind_Speed
17 11 15 22 16 12 11 12 11 15 15 17 15 12 11 9 12 12 11 14 12 10
15 16 19 24 16 12 13 12 12 13 14 12 12 12 11 9 13 13 13 13 13 9
18 18 18 15 15 14 12 16 17 16 16 14 14 15 14 9 13 15 11 9 12 11
19 20 16 11 13 13 14 16 15 14 14 15 16 12 10 14 13 13 10 10 11 10
18 19 16 15 18 9 12 13 15 12 14 16 15 13 10 3 3 12 12 12 10 10
18 18 17 16 16 10 9 6 6 10 14 15 16 16 14 21 23 18 15 11 11 9
18 18 15 14 14 15 13 5 8 11 10 10 12 16 17 14 11 10 10 10 10 11
15 14 15 15 13 15 16 15 12 2 5 3 3 2 10 12 10 8 8 4 5 6
17 16 19 15 13 16 14 18 16 15 10 8 5 8 8 9 7 7 7 6 5 5
16 16 17 17 17 18 15 16 17 16 14 12 10 13 13 16 10 9 9 8 6 5
15 15 15 15 16 15 14 15 13 16 14 12 12 16 17 20 13 12 12 11 9 6
15 15 16 16 16 16 15 15 14 14 17 12 16 20 14 15 13 13 14 13 12 8
13 14 15 15 14 13 12 12 11 15 16 19 19 25 19 17 9 13 10 11 12 19
14 14 14 12 13 10 11 11 13 14 15 17 20 22 29 24 13 9 10 9 10 9
Wind_Direction
289 268 258 250 246 251 204 201 187 202 196 205 212 209 198 185 200 208 204 196 201 204
307 293 252 244 226 225 207 205 179 194 202 195 188 184 182 187 204 209 205 202 201 191
326 319 316 244 220 216 212 207 200 193 189 179 202 180 177 191 214 211 201 199 201 201
339 335 332 304 243 231 221 223 206 171 185 185 188 183 191 180 210 215 200 205 205 209
345 340 339 340 328 255 231 227 194 175 186 186 191 186 189 191 274 232 217 212 203 212
349 343 344 345 337 306 233 201 209 188 193 198 193 171 169 163 216 218 218 208 211 205
344 343 350 349 349 354 349 189 190 203 189 197 198 189 177 167 182 195 196 194 201 210
346 348 1 4 349 21 5 17 356 55 52 19 83 201 170 150 159 166 177 120 83 63
354 360 6 7 14 38 17 30 19 23 28 62 42 349 58 98 107 86 91 94 77 60
3 7 13 8 15 26 19 35 31 17 27 20 31 23 80 83 79 76 65 59 48 41
9 13 16 19 24 23 25 32 46 32 17 21 27 29 71 84 83 75 66 54 43 34
11 16 21 26 27 28 29 27 31 41 39 13 36 33 37 86 83 76 65 57 45 40
15 20 27 24 27 30 39 39 38 42 42 26 39 38 36 58 72 75 70 62 50 47
20 23 20 25 29 27 35 39 40 41 40 34 40 40 42 51 57 59 67 61 57 50